Location: Appletree Creek
(38.7363°N, 122.6833°W)
Time: 08:36:49
(UTC+00:00)

Cosmos 2228 Rocket - Pass Details

Date: 18 September 2020
Orbit: 619 x 651 km, 82.5° (Epoch: 22 October)

Event Time Altitude Azimuth Distance (km) Brightness Sun altitude
Exits shadow 12:53:20 19° 254° (WSW) 1,466 4.3 -12.8°
Maximum altitude 12:54:56 24° 285° (WNW) 1,303 4.2 -12.5°
Drops below altitude 10° 12:58:30 10° 339° (NNW) 1,992 5.6 -11.8°
Sets 13:01:07 0° 354° (N) 2,905 6.6 -11.3°
